BCS375 EDDH-EDDP

Flight info

Callsign BCS375
Flight time 0h 37m
Altitude 23000
Route AMLUH2G/33 AMLUH M852 DENIX Z113 SAS Z88 UPDAT/N0477F270 T236 ADMOS/N0449F230 T959 KOJEC KOJEC1V
Aircraft A306/H-SDE3FGHIRWY/LB1

Departure

Time 2026-04-25 19:02
Airport Hamburg Helmut Schmidt Airport (EDDH)

Arrival

Time 2026-04-25 19:40
Airport Leipzig/Halle Airport (EDDP)
Time Latitude Longitude Altitude Speed Heading
2026-04-25 18:45 53.62674 9.99231 44 ft 0 kts 63°
2026-04-25 18:52 53.62663 9.99198 45 ft 3 kts 62°
2026-04-25 18:53 53.62653 9.99163 46 ft 3 kts 62°
2026-04-25 18:53 53.62640 9.99126 47 ft 3 kts 61°
2026-04-25 18:53 53.62629 9.99092 47 ft 2 kts 60°
2026-04-25 18:53 53.62628 9.99088 47 ft 0 kts 60°
2026-04-25 18:55 53.62628 9.99089 47 ft 0 kts 63°
2026-04-25 18:55 53.62624 9.99107 47 ft 2 kts 141°
2026-04-25 18:55 53.62609 9.99123 48 ft 2 kts 153°
2026-04-25 18:56 53.62594 9.99138 49 ft 4 kts 142°
2026-04-25 18:56 53.62578 9.99210 48 ft 10 kts 86°
2026-04-25 18:56 53.62595 9.99373 45 ft 11 kts 79°
2026-04-25 18:56 53.62605 9.99467 45 ft 9 kts 79°
2026-04-25 18:57 53.62620 9.99597 44 ft 3 kts 79°
2026-04-25 18:57 53.62625 9.99639 44 ft 5 kts 79°
2026-04-25 18:57 53.62632 9.99702 44 ft 0 kts 79°
2026-04-25 18:58 53.62632 9.99703 44 ft 0 kts 79°
2026-04-25 18:59 53.62632 9.99704 44 ft 0 kts 79°
2026-04-25 18:59 53.62633 9.99705 44 ft 0 kts 79°
2026-04-25 19:00 53.62655 9.99816 43 ft 9 kts 58°
2026-04-25 19:00 53.62709 9.99881 42 ft 10 kts 343°
2026-04-25 19:01 53.62732 9.99863 40 ft 0 kts 332°
2026-04-25 19:01 53.62773 9.99826 38 ft 22 kts 332°
2026-04-25 19:02 53.63808 9.98934 40 ft 141 kts 331°
2026-04-25 19:02 53.64826 9.98049 105 ft 184 kts 330°
2026-04-25 19:02 53.66016 9.97267 753 ft 190 kts 339°
2026-04-25 19:03 53.67860 9.95702 2253 ft 176 kts 326°
2026-04-25 19:03 53.69402 9.94684 2901 ft 193 kts 353°
2026-04-25 19:03 53.70756 9.94691 3595 ft 195 kts 356°
2026-04-25 19:04 53.73305 9.96065 4943 ft 222 kts 44°
2026-04-25 19:04 53.73915 9.98592 5558 ft 246 kts 70°
2026-04-25 19:05 53.73722 10.04708 6341 ft 297 kts 108°
2026-04-25 19:05 53.71725 10.11132 7615 ft 316 kts 116°
2026-04-25 19:05 53.70659 10.14358 8338 ft 320 kts 116°
2026-04-25 19:06 53.69461 10.17601 8729 ft 337 kts 128°
2026-04-25 19:06 53.65527 10.21810 10116 ft 335 kts 168°
2026-04-25 19:06 53.63272 10.22729 10693 ft 339 kts 175°
2026-04-25 19:07 53.58391 10.24063 11144 ft 377 kts 176°
2026-04-25 19:07 53.55751 10.24843 11382 ft 395 kts 174°
2026-04-25 19:08 53.50150 10.26672 12005 ft 426 kts 173°
2026-04-25 19:08 53.47216 10.27650 12605 ft 433 kts 173°
2026-04-25 19:09 53.38467 10.31678 14470 ft 450 kts 164°
2026-04-25 19:09 53.36521 10.32811 14828 ft 455 kts 163°
2026-04-25 19:09 53.29434 10.36880 16160 ft 467 kts 164°
2026-04-25 19:10 53.26375 10.38585 16870 ft 468 kts 165°
2026-04-25 19:10 53.23268 10.40308 17473 ft 471 kts 165°
2026-04-25 19:10 53.20147 10.42039 17947 ft 478 kts 165°
2026-04-25 19:10 53.17020 10.43769 18412 ft 483 kts 164°
2026-04-25 19:11 53.13829 10.45531 19048 ft 485 kts 165°
2026-04-25 19:11 53.10601 10.47310 19663 ft 486 kts 164°
2026-04-25 19:11 53.07368 10.49090 20102 ft 492 kts 164°
2026-04-25 19:11 53.04150 10.50869 20655 ft 495 kts 164°
2026-04-25 19:12 53.00867 10.52678 21183 ft 497 kts 164°
2026-04-25 19:12 52.97625 10.54450 21681 ft 501 kts 164°
2026-04-25 19:12 52.94310 10.56265 22143 ft 505 kts 164°
2026-04-25 19:12 52.90958 10.58102 22634 ft 509 kts 164°
2026-04-25 19:13 52.87587 10.59949 23011 ft 511 kts 164°
2026-04-25 19:13 52.84253 10.61774 23071 ft 511 kts 164°
2026-04-25 19:13 52.80873 10.63617 23077 ft 508 kts 164°
2026-04-25 19:13 52.77542 10.65428 23079 ft 508 kts 165°
2026-04-25 19:14 52.74174 10.67260 23074 ft 507 kts 165°
2026-04-25 19:14 52.71938 10.68470 23073 ft 507 kts 165°
2026-04-25 19:14 52.67501 10.70874 23073 ft 507 kts 165°
2026-04-25 19:14 52.64135 10.72691 23076 ft 507 kts 165°
2026-04-25 19:15 52.60833 10.74466 23078 ft 505 kts 165°
2026-04-25 19:15 52.57489 10.76264 23081 ft 506 kts 165°
2026-04-25 19:15 52.54166 10.78054 23072 ft 507 kts 165°
2026-04-25 19:15 52.50808 10.79862 23077 ft 505 kts 165°
2026-04-25 19:16 52.47467 10.81654 23074 ft 502 kts 165°
2026-04-25 19:16 52.44173 10.83414 23078 ft 502 kts 165°
2026-04-25 19:16 52.40831 10.85192 23079 ft 503 kts 165°
2026-04-25 19:16 52.37547 10.86945 23080 ft 503 kts 165°
2026-04-25 19:17 52.34209 10.88721 23076 ft 502 kts 165°
2026-04-25 19:17 52.30928 10.90469 23080 ft 502 kts 165°
2026-04-25 19:17 52.27641 10.92219 23075 ft 499 kts 165°
2026-04-25 19:17 52.24336 10.93969 22727 ft 505 kts 165°
2026-04-25 19:18 52.20995 10.95736 22107 ft 503 kts 165°
2026-04-25 19:18 52.17680 10.97489 21486 ft 497 kts 165°
2026-04-25 19:18 52.14442 10.99202 20839 ft 487 kts 165°
2026-04-25 19:18 52.11285 11.00872 20225 ft 475 kts 165°
2026-04-25 19:19 52.08181 11.02503 19596 ft 463 kts 165°
2026-04-25 19:19 52.05186 11.04079 18986 ft 452 kts 165°
2026-04-25 19:19 52.02225 11.05632 18365 ft 443 kts 165°
2026-04-25 19:19 52.00275 11.06654 17953 ft 436 kts 165°
2026-04-25 19:20 51.96482 11.08634 17176 ft 428 kts 165°
2026-04-25 19:20 51.93686 11.10092 16569 ft 426 kts 165°
2026-04-25 19:20 51.90868 11.11562 15955 ft 425 kts 166°
2026-04-25 19:20 51.88093 11.13008 15304 ft 419 kts 166°
2026-04-25 19:21 51.85339 11.14445 14675 ft 411 kts 166°
2026-04-25 19:21 51.80098 11.17682 13412 ft 406 kts 150°
2026-04-25 19:21 51.77956 11.20541 12834 ft 405 kts 133°
2026-04-25 19:22 51.76208 11.24059 12208 ft 402 kts 124°
2026-04-25 19:22 51.74644 11.27745 11599 ft 397 kts 123°
2026-04-25 19:22 51.71540 11.34995 10349 ft 390 kts 124°
2026-04-25 19:23 51.69979 11.38508 9703 ft 379 kts 125°
2026-04-25 19:23 51.67017 11.45099 8632 ft 353 kts 125°
2026-04-25 19:23 51.65606 11.48235 8131 ft 341 kts 124°
2026-04-25 19:24 51.64240 11.51270 7625 ft 332 kts 124°
2026-04-25 19:24 51.62906 11.54231 7117 ft 323 kts 124°
2026-04-25 19:24 51.60321 11.59956 6129 ft 310 kts 124°
2026-04-25 19:25 51.57811 11.65512 5408 ft 308 kts 125°
2026-04-25 19:25 51.56565 11.68270 5060 ft 304 kts 125°
2026-04-25 19:25 51.55345 11.70964 5007 ft 293 kts 125°
2026-04-25 19:26 51.54149 11.73594 4993 ft 290 kts 125°
2026-04-25 19:26 51.53041 11.76270 4995 ft 288 kts 109°
2026-04-25 19:26 51.52689 11.79377 5048 ft 283 kts 85°
2026-04-25 19:26 51.52776 11.82482 5025 ft 275 kts 79°
2026-04-25 19:27 51.52968 11.85456 5002 ft 263 kts 77°
2026-04-25 19:27 51.53096 11.87361 4998 ft 258 kts 78°
2026-04-25 19:27 51.53321 11.91129 4999 ft 250 kts 78°
2026-04-25 19:27 51.53468 11.93887 4992 ft 249 kts 79°
2026-04-25 19:28 51.53614 11.96664 4991 ft 248 kts 79°
2026-04-25 19:28 51.53753 11.99407 5007 ft 248 kts 79°
2026-04-25 19:28 51.53887 12.02171 4996 ft 248 kts 79°
2026-04-25 19:28 51.54023 12.04927 4986 ft 249 kts 79°
2026-04-25 19:29 51.54160 12.07700 4861 ft 252 kts 79°
2026-04-25 19:29 51.54297 12.10511 4608 ft 251 kts 79°
2026-04-25 19:29 51.54433 12.13274 4344 ft 248 kts 79°
2026-04-25 19:29 51.54562 12.15979 4089 ft 244 kts 79°
2026-04-25 19:30 51.54689 12.18676 3993 ft 236 kts 79°
2026-04-25 19:30 51.54810 12.21256 4058 ft 230 kts 79°
2026-04-25 19:30 51.54929 12.23845 4038 ft 231 kts 79°
2026-04-25 19:30 51.55045 12.26392 4014 ft 230 kts 79°
2026-04-25 19:31 51.55162 12.28965 4012 ft 231 kts 79°
2026-04-25 19:31 51.55277 12.31503 4023 ft 230 kts 79°
2026-04-25 19:31 51.55394 12.34070 4014 ft 230 kts 79°
2026-04-25 19:31 51.55512 12.36624 4009 ft 230 kts 79°
2026-04-25 19:32 51.55629 12.39213 4010 ft 230 kts 79°
2026-04-25 19:32 51.55743 12.41744 4005 ft 231 kts 79°
2026-04-25 19:32 51.55861 12.44311 4004 ft 230 kts 79°
2026-04-25 19:32 51.55937 12.46046 4006 ft 230 kts 79°
2026-04-25 19:33 51.56087 12.49442 4005 ft 231 kts 79°
2026-04-25 19:33 51.55837 12.52019 3876 ft 243 kts 109°
2026-04-25 19:33 51.54816 12.54152 3613 ft 243 kts 143°
2026-04-25 19:33 51.53300 12.55191 3347 ft 232 kts 176°
2026-04-25 19:34 51.51715 12.55463 3105 ft 230 kts 180°
2026-04-25 19:34 51.50159 12.55695 2998 ft 218 kts 179°
2026-04-25 19:34 51.48674 12.55920 2999 ft 215 kts 180°
2026-04-25 19:34 51.47182 12.56147 3002 ft 216 kts 180°
2026-04-25 19:35 51.45706 12.56140 2985 ft 207 kts 202°
2026-04-25 19:35 51.44541 12.55024 3011 ft 192 kts 233°
2026-04-25 19:35 51.43621 12.53461 3011 ft 192 kts 235°
2026-04-25 19:35 51.42771 12.51835 2982 ft 185 kts 252°
2026-04-25 19:36 51.42524 12.49898 3035 ft 177 kts 269°
2026-04-25 19:36 51.42392 12.47964 3005 ft 169 kts 272°
2026-04-25 19:36 51.42310 12.46125 2993 ft 164 kts 272°
2026-04-25 19:36 51.42234 12.44316 2802 ft 164 kts 272°
2026-04-25 19:37 51.42157 12.42537 2577 ft 157 kts 271°
2026-04-25 19:37 51.42080 12.40819 2363 ft 152 kts 272°
2026-04-25 19:37 51.42006 12.39160 2177 ft 146 kts 272°
2026-04-25 19:37 51.41933 12.37579 1968 ft 138 kts 272°
2026-04-25 19:38 51.41868 12.36083 1786 ft 135 kts 273°
2026-04-25 19:38 51.41804 12.34577 1597 ft 135 kts 273°
2026-04-25 19:38 51.41739 12.33056 1416 ft 138 kts 271°
2026-04-25 19:38 51.41669 12.31512 1228 ft 140 kts 270°
2026-04-25 19:39 51.41598 12.29969 1041 ft 139 kts 270°
2026-04-25 19:39 51.41525 12.28434 856 ft 139 kts 269°
2026-04-25 19:39 51.41455 12.26864 665 ft 141 kts 268°
2026-04-25 19:39 51.41382 12.25292 487 ft 143 kts 268°
2026-04-25 19:40 51.41321 12.23865 463 ft 111 kts 264°
2026-04-25 19:40 51.41272 12.22924 470 ft 39 kts 261°
2026-04-25 19:40 51.41225 12.22672 470 ft 14 kts 244°
2026-04-25 19:40 51.41174 12.22541 470 ft 10 kts 225°
2026-04-25 19:41 51.41169 12.22534 470 ft 0 kts 223°
2026-04-25 19:41 51.41168 12.22533 470 ft 1 kts 222°
2026-04-25 19:42 51.41093 12.22580 472 ft 12 kts 105°
2026-04-25 19:42 51.41093 12.22678 474 ft 5 kts 85°
2026-04-25 19:42 51.41098 12.22775 474 ft 13 kts 84°
2026-04-25 19:42 51.41104 12.22914 474 ft 10 kts 86°
2026-04-25 19:43 51.41108 12.23005 474 ft 6 kts 85°
2026-04-25 19:43 51.41112 12.23078 473 ft 6 kts 85°
2026-04-25 19:43 51.41118 12.23184 472 ft 19 kts 88°
2026-04-25 19:43 51.41038 12.23362 469 ft 21 kts 97°
2026-04-25 19:44 51.41048 12.23582 464 ft 18 kts 85°
2026-04-25 19:44 51.41057 12.23780 464 ft 18 kts 85°
2026-04-25 19:44 51.41069 12.24024 459 ft 21 kts 84°
2026-04-25 19:44 51.40978 12.24126 456 ft 19 kts 174°
2026-04-25 19:45 51.40827 12.24147 453 ft 20 kts 175°
2026-04-25 19:45 51.40743 12.24159 451 ft 6 kts 174°
2026-04-25 19:45 51.40722 12.24115 452 ft 7 kts 262°
2026-04-25 19:45 51.40718 12.24055 452 ft 0 kts 265°